This is the latest recevied weather packets stored in our database for station/object N7MLR. If no packets are shown the sender has not sent any weather packets the latest 10 day(s).
| Time | Temp. | Humidity | Pressure | Rain* | Wind** | Luminosity | Snow |
|---|---|---|---|---|---|---|---|
| 1777477136 | 24.44° C | 95% | 1012.8 hPa | 0 mm | - | 42 W/m² | - |
| 1777476833 | 24.44° C | 95% | 1012.5 hPa | 0 mm | - | 40 W/m² | - |
| 1777476530 | 24.44° C | 95% | 1012.8 hPa | 0 mm | - | 42 W/m² | - |
| 1777476226 | 24.44° C | 95% | 1012.8 hPa | 0 mm | - | 55 W/m² | - |
| 1777475922 | 25° C | 94% | 1012.6 hPa | 0 mm | - | 53 W/m² | - |
| 1777475618 | 25° C | 94% | 1012.8 hPa | 0 mm | - | 50 W/m² | - |
| 1777475315 | 25° C | 93% | 1012.8 hPa | 0 mm | - | 57 W/m² | - |
| 1777475010 | 25° C | 94% | 1012.7 hPa | 0 mm | - | 60 W/m² | - |
| 1777474707 | 25° C | 94% | 1012.6 hPa | 0 mm | - | 55 W/m² | - |
| 1777474403 | 25° C | 95% | 1012.5 hPa | 0 mm | - | 61 W/m² | - |
| 1777474100 | 24.44° C | 96% | 1012.5 hPa | 0 mm | - | 49 W/m² | - |
| 1777473798 | 24.44° C | 97% | 1012.5 hPa | 0 mm | - | 55 W/m² | - |
| 1777473495 | 23.89° C | 98% | 1012.5 hPa | 0 mm | - | 60 W/m² | - |
| 1777473190 | 23.89° C | 98% | 1012.6 hPa | 0 mm | - | 59 W/m² | - |
| 1777472887 | 23.89° C | 98% | 1012.3 hPa | 0 mm | - | 64 W/m² | - |
| 1777472583 | 23.89° C | 98% | 1012.4 hPa | 0 mm | - | 63 W/m² | - |
| 1777472280 | 23.89° C | 98% | 1012.6 hPa | 0 mm | - | 59 W/m² | - |
| 1777471975 | 23.89° C | 98% | 1012.6 hPa | 0 mm | - | 48 W/m² | - |
| 1777471667 | 23.89° C | 99% | 1012.5 hPa | 0 mm | - | 45 W/m² | - |
| 1777471363 | 23.89° C | 99% | 1012.2 hPa | 0 mm | - | 48 W/m² | - |
| 1777471060 | 23.89° C | 99% | 1012.3 hPa | 0 mm | - | 56 W/m² | - |
| 1777470757 | 23.89° C | 99% | 1012.3 hPa | 0 mm | - | 42 W/m² | - |
| 1777470453 | 23.89° C | 99% | 1012.3 hPa | 0 mm | - | 58 W/m² | - |
| 1777470150 | 23.89° C | 99% | 1012.5 hPa | 0 mm | - | 47 W/m² | - |
| 1777469846 | 23.89° C | 99% | 1012.3 hPa | 0 mm | - | 62 W/m² | - |
* Rain latest hour (hover to see other rain measurements)
** Current wind speed in m/s (hover to see current wind gust speed)